Regional Weather Roundup
Issued by NWS Midland/Odessa, TX

Skip options and go directly to product.
Home | Oldest Version | Previous Version | Current Version | All | Graphics & Text | Save Text | Print | Product List | Glossary On

Skip product version selection by date and time.   
453
ASUS44 KMAF 140510
RWRMAF
MIDLAND AREA WEATHER ROUNDUP
NATIONAL WEATHER SERVICE MIDLAND TX
1100 PM CST SAT FEB 13 2016

...IN SOUTHWEST TEXAS AND SOUTHEAST NEW MEXICO...

CITY           SKY/WX    TMP DP  RH WIND       PRES   REMARKS
ALPINE         CLOUDY    56  14  18 W8        30.15F
ANDREWS        FAIR      55  41  59 S15       30.02S
ARTESIA        CLOUDY    48  16  27 NW7       30.01S
BIG SPRING     CLEAR     56  36  48 S18G24    30.03F
CARLSBAD       CLEAR     53  17  24 W10       29.98F
DRYDEN           N/A     56  40  55 N9        30.04F
FORT STOCKTON  CLOUDY    58  42  55 S16       30.03F
GUAD PASS      CLOUDY    54   9  16 W14G20    30.12S
HOBBS          CLEAR     48  30  49 S9        30.03S
MARFA          CLOUDY    35  13  40 NW6       30.13F WCI  30
MIDLAND AIRPK  CLEAR     59  41  52 S14       30.02F
MIDLAND INTL   CLEAR     57  41  55 S16       30.02F
ODESSA         CLEAR     60  41  49 S15       30.02F
PECOS          CLOUDY    46  29  52 CALM      29.99F
PRESIDIO       FAIR      62  17  17 MISG      30.02F
SEMINOLE       CLEAR     56  41  58 S13       30.02S
SNYDER           N/A     54  39  57 S10       30.02S
WINK           CLOUDY    56  39  53 SE12      30.00S
$$
...OTHER STATIONS IN TEXAS...

CITY           SKY/WX    TMP DP  RH WIND       PRES   REMARKS
ABILENE        CLEAR     61  38  42 S22G29    30.01F
AMARILLO       CLEAR     45  27  49 SW12      29.92F WCI  39
AUSTIN         CLEAR     58  54  86 S13       30.15F
BROWNSVILLE    PTCLDY    63  59  87 SE10      30.17F
CORPUS CHRISTI PTCLDY    59  53  80 SE9       30.17S
DALLAS FTW     PTCLDY    58  42  55 SE13      30.09F
DEL RIO        CLEAR     61  41  47 E8        30.07S
EL PASO        MOCLDY    56   9  15 SW5       30.04F
HOUSTON INT    CLOUDY    58  53  84 SE13      30.21F
LUBBOCK        CLEAR     60  37  42 S22G28    29.98F
SAN ANGELO     CLEAR     59  41  51 S14G22    30.04F
SAN ANTONIO    PTCLDY    59  52  77 S10       30.16F
WACO           MOCLDY    60  53  77 S17       30.12S
WICHITA FALLS  NOT AVBL
$$
...OTHER LOCATIONS IN NEW MEXICO...

CITY           SKY/WX    TMP DP  RH WIND       PRES   REMARKS
ALAMAGORDO     CLOUDY    50   7  17 SE3       30.06F
ALBUQUERQUE    PTCLDY    52  19  27 N8        30.12S
CANNON AFB     CLOUDY    49  20  31 W13       29.99F
CLOVIS         CLOUDY    48  19  32 W14       30.00F
HOLLOMAN AFB   CLOUDY    52  10  18 SE5       30.04F
ROSWELL        CLOUDY    51  14  22 W13       30.00F
RUIDOSO          N/A     45   7  21 MISG      30.18S
SANTA FE       CLOUDY    41  16  36 N12       30.12S WCI  34
TRUTH OR CONSE CLEAR     55  10  16 NW13      30.09S
TUCUMCARI      CLEAR     52  16  24 W12       29.95S
$$

USA.gov is the U.S. government's official web portal to all federal, state and local government web resources and services.